Location: Helion Bumpstead
(52.0500°N, 0.4000°E)
Time: 12:18:46
(UTC+00:00)

Okean 1 Rocket - Visible Passes

Search period start: 18 February 2026 00:00
Search period end: 28 February 2026 00:00
Orbit: 600 x 626 km, 82.5° (Epoch: 17 February)

Date Brightness Start Highest point End Pass type
(mag) Time Alt. Az. Time Alt. Az. Time Alt. Az.
18 Feb 4.9 06:08:02 10° SSE 06:12:06 36° E 06:16:10 10° NNE visible
18 Feb 3.7 17:47:24 10° NNW 17:51:44 62° W 17:56:01 10° S visible
19 Feb 3.8 06:23:10 10° S 06:27:32 59° E 06:31:54 10° NNE visible
19 Feb 4.8 18:03:07 10° NNW 18:07:10 37° W 18:11:10 10° SSW visible
20 Feb 6.5 05:03:53 10° ESE 05:05:58 13° E 05:08:01 10° NE visible
20 Feb 5.8 18:19:01 10° NW 18:22:30 24° W 18:25:57 10° SW visible
21 Feb 5.9 05:17:55 10° SE 05:21:12 21° E 05:24:30 10° NE visible
21 Feb 6.3 18:35:19 10° NW 18:37:47 15° W 18:40:13 10° WSW visible
22 Feb 5.1 05:32:35 10° SSE 05:36:32 33° E 05:40:30 10° NNE visible
23 Feb 4.0 05:47:38 10° S 05:51:57 53° E 05:56:16 10° NNE visible
24 Feb 6.5 04:28:49 10° ESE 04:30:25 12° E 04:32:02 10° ENE visible
24 Feb 3.1 06:02:59 10° S 06:07:25 87° ESE 06:11:52 10° NNE visible
25 Feb 6.0 04:42:34 10° SE 04:45:39 19° E 04:48:44 10° NE visible
25 Feb 6.2 17:59:30 10° NW 18:02:13 16° W 18:04:55 10° WSW visible
26 Feb 5.2 04:57:08 10° SSE 05:00:58 29° E 05:04:48 10° NNE visible
27 Feb 4.2 05:12:06 10° SSE 05:16:21 47° E 05:20:35 10° NNE visible
